SCP
1 1 1 1 1 1 1 1 1 1 1 1 1 1 1 1 1 1 0 0 0 0 0 1 1 0 1 1 1 1 1 1 1 0 0 0 0 0 0 0 0 1 1
1 1 1 1 1 1 1 1 1 1 1 1 1 0 1 1 1 1 1 0 0 1 1 1 1 1 1 1 1 1 1 1 1 0 0 0 0 0 0 0 1 1 1
1 1 1 1 1 1 1 1 1 1 1 1 1 0 0 0 1 1 1 1 1 1 1 1 1 1 1 1 1 1 1 1 1 0 0 0 0 0 0 0 1 1 1
1 1 1 1 1 1 1 1 1 1 1 1 1 1 1 0 0 0 0 0 1 1 1 1 1 1 1 1 1 1 1 1 1 1 0 0 0 0 0 1 1 1 1
1 1 1 1 1 1 1 1 1 1 1 1 1 1 1 1 1 0 0 0 0 1 1 1 1 1 1 1 1 1 1 1 1 1 0 0 0 0 0 0 1 1 1
1 1 1 1 1 1 1 1 1 1 1 1 1 1 1 1 1 1 1 0 0 0 1 1 1 1 1 1 1 1 1 1 1 1 1 1 1 1 0 0 1 1 1
1 1 1 1 1 1 1 1 1 1 1 1 1 1 1 1 1 1 1 1 1 1 1 1 1 1 1 1 1 1 1 1 1 1 1 1 1 1 1 0 1 1 1
1 1 1 1 1 1 1 1 1 1 1 1 1 1 1 1 1 1 1 1 1 1 1 1 1 1 1 1 1 1 1 1 1 1 1 1 1 1 1 1 1 1 1
1 1 1 1 1 1 1 1 1 1 1 1 1 1 1 1 1 1 1 1 1 1 1 1 1 1 1 1 0 1 1 1 1 1 0 1 1 1 1 1 1 1 1
1 1 1 1 1 1 1 1 1 1 1 1 1 1 1 1 0 0 1 1 1 1 1 1 1 1 1 1 0 0 0 1 1 0 0 0 1 1 1 1 1 1 1
1 1 1 1 1 1 1 1 0 0 0 0 0 0 0 1 1 0 0 1 1 1 1 1 1 1 1 1 0 0 0 1 1 0 0 0 0 1 1 1 1 1 1
1 1 1 1 1 1 1 1 0 0 1 1 0 0 1 1 1 1 0 0 0 1 1 1 1 1 1 0 0 0 0 1 1 1 0 0 0 1 1 1 1 1 1
1 1 1 1 1 1 1 1 1 1 1 1 1 1 1 1 1 1 1 0 0 0 0 1 1 1 1 0 0 0 0 1 1 1 1 0 0 0 1 1 1 1 1
0 0 1 1 1 1 1 1 1 1 1 1 1 1 1 1 1 1 1 0 0 0 0 1 1 1 1 1 0 0 0 0 1 1 1 1 0 0 1 1 1 1 1
0 0 0 1 1 1 1 1 1 1 1 1 1 1 1 1 1 1 1 0 0 0 0 0 1 1 1 1 1 0 0 0 0 1 1 1 0 0 1 1 1 2 2
0 0 0 0 1 1 1 1 1 1 1 1 1 1 1 1 1 1 1 0 0 0 0 0 0 0 1 1 1 0 0 0 0 1 1 1 0 0 1 1 1 1 2
0 0 0 0 0 1 1 1 1 1 1 1 1 1 1 1 1 1 1 0 0 0 0 0 0 0 0 0 0 0 0 0 0 0 1 1 1 1 0 1 1 1 1
0 0 0 0 0 0 0 1 1 1 1 1 1 1 1 1 1 1 1 1 0 0 0 0 0 0 0 0 0 0 0 0 0 0 1 1 1 1 1 1 1 1 1
0 0 0 0 0 0 0 0 1 1 1 1 1 1 1 1 1 1 1 1 1 1 0 0 0 0 0 0 0 0 0 0 0 0 1 1 1 1 1 1 0 0 0
0 0 0 0 0 0 0 0 1 1 1 1 1 1 1 1 1 1 1 0 0 0 0 0 0 0 0 0 0 0 0 0 0 0 1 1 1 1 1 1 1 0 0
1 1 0 0 0 0 0 0 1 1 1 1 1 1 0 1 1 0 0 0 0 0 0 0 0 0 0 1 0 0 0 0 0 0 0 1 1 1 1 1 1 1 1
1 1 1 1 0 0 0 1 1 1 1 1 1 1 1 1 1 1 0 0 0 0 0 0 0 0 0 1 0 0 0 0 0 0 0 0 0 1 1 1 1 1 1
1 1 1 1 1 1 1 1 1 1 1 1 1 1 1 1 1 1 1 1 1 0 0 0 0 0 0 1 0 0 0 0 0 0 0 0 0 1 1 1 1 1 1
1 1 1 1 1 0 0 1 1 1 1 1 1 1 1 0 0 1 1 1 1 1 0 0 0 0 0 0 0 0 0 0 0 0 0 0 0 1 1 1 1 1 1
0 0 0 0 0 0 0 1 1 1 1 1 1 1 1 0 0 0 0 0 1 1 0 0 0 0 0 0 0 0 0 0 0 0 0 0 1 1 1 1 1 1 0
0 0 0 0 0 0 0 1 1 1 1 1 1 1 1 1 0 0 0 0 0 0 0 0 0 0 0 0 0 0 0 0 0 0 0 0 1 1 1 1 1 1 0
Wind_Speed
3 4 3 4 6 6 7 7 7 7 6 6 7 7 7 7 7 7 7 7 7 7 8 8 8 8 9 9 10 10 10 10 9 9 8 8 8 9 8 8 6 7 9
4 5 4 5 6 7 7 7 6 6 6 6 6 6 6 6 7 7 7 7 7 7 8 8 8 8 9 9 9 9 9 9 9 8 6 7 8 8 8 8 7 6 8
4 5 5 5 6 7 7 7 6 6 5 5 5 5 6 5 6 6 7 7 6 7 8 8 8 8 8 8 8 9 9 9 8 6 3 4 6 7 7 7 7 7 7
5 5 5 6 7 7 7 7 6 6 5 5 5 5 5 5 5 5 6 6 6 6 7 7 7 7 7 7 7 8 8 8 7 4 3 4 4 6 6 6 6 7 7
5 5 6 6 7 7 7 7 6 5 5 5 5 5 5 5 5 5 5 5 5 5 5 5 6 6 6 6 7 7 7 7 5 3 4 4 4 6 6 6 6 6 6
6 5 6 6 6 6 7 6 5 5 5 5 5 5 5 5 5 5 5 5 4 4 4 5 5 5 5 5 5 5 5 5 2 3 4 3 4 6 6 6 6 5 6
5 5 6 6 6 6 6 5 5 5 4 5 5 5 5 5 5 5 5 5 5 4 4 4 4 5 5 5 5 5 5 3 2 3 3 3 4 5 5 5 5 4 4
5 4 5 6 6 5 5 5 5 5 5 5 5 5 5 5 6 5 5 5 5 5 4 4 4 5 5 4 4 4 4 2 2 2 2 3 4 4 4 3 3 3 3
4 4 4 4 4 5 5 4 5 5 5 5 5 6 6 5 5 5 5 4 4 4 3 4 4 4 4 4 4 4 4 3 1 2 2 2 3 3 3 3 3 2 2
3 3 3 3 3 3 4 4 5 5 5 5 5 6 5 5 5 4 4 4 3 3 3 3 3 4 4 4 4 3 2 1 1 1 1 2 3 2 2 3 3 2 1
3 2 2 2 2 2 3 3 4 4 5 4 4 5 3 2 3 2 4 4 4 4 3 3 4 4 3 3 3 2 1 1 1 1 1 3 2 2 2 2 3 3 2
2 2 1 2 2 2 2 2 2 2 2 1 1 2 1 1 1 1 4 4 4 4 3 3 3 3 1 1 1 0 1 1 1 1 2 3 2 1 2 2 2 2 2
2 2 1 1 1 2 1 1 1 1 1 1 1 1 1 1 1 1 1 1 2 2 2 2 1 1 1 1 1 1 1 1 1 1 2 3 2 1 1 2 2 2 2
2 2 1 1 1 1 1 1 1 1 1 1 1 1 1 0 1 1 0 1 1 0 1 1 1 1 1 1 1 1 1 1 1 1 2 3 3 2 2 2 2 2 2
3 3 2 2 2 2 1 1 1 1 1 1 0 0 0 0 0 0 0 0 1 1 0 0 1 1 1 1 1 1 1 1 1 1 0 2 3 3 3 2 3 2 2
4 3 3 3 2 2 2 1 1 1 1 1 0 0 0 0 0 1 0 0 0 1 1 1 1 1 1 1 1 1 1 1 1 2 2 1 2 3 4 4 3 3 3
4 3 3 3 3 3 2 2 1 1 1 1 0 0 0 0 0 1 0 0 0 1 0 0 1 1 1 1 1 2 1 2 2 2 2 2 2 1 3 4 4 4 4
3 3 3 2 2 2 2 2 1 1 1 0 0 0 0 0 0 1 0 0 0 0 0 0 1 1 1 1 1 1 2 1 2 2 2 2 2 2 1 3 5 5 5
3 3 3 3 3 2 2 1 1 1 1 0 0 0 0 0 0 0 1 1 0 0 1 1 1 1 1 2 2 2 2 2 2 2 2 2 2 2 2 2 3 5 5
2 2 3 3 3 2 2 1 1 1 1 0 0 0 0 0 0 0 0 1 1 1 1 1 1 1 1 1 2 2 3 3 3 3 3 3 2 3 3 3 2 3 4
1 2 2 2 3 2 2 2 2 1 1 0 0 0 0 0 0 0 0 0 1 1 1 1 1 1 1 1 1 2 3 3 3 3 3 3 3 3 3 3 3 3 3
1 1 2 2 3 3 2 2 1 1 1 1 0 0 1 1 1 1 1 1 1 1 1 1 1 2 1 2 2 2 3 3 2 3 3 3 4 3 4 4 4 3 3
1 1 1 2 2 2 2 2 1 1 1 0 1 1 1 1 1 1 1 1 1 1 1 2 2 2 2 2 2 2 3 3 2 3 3 3 3 4 4 4 4 4 4
1 1 1 1 1 2 2 2 3 2 2 2 1 1 1 1 1 1 1 1 1 1 2 2 2 2 3 2 2 2 3 3 3 3 3 3 4 5 5 4 5 5 5
1 1 1 1 1 1 1 2 2 2 1 1 1 1 1 1 1 1 2 1 2 2 2 2 2 3 2 3 2 2 3 3 4 5 5 4 4 5 5 5 5 5 5
1 1 1 1 0 0 1 1 2 2 1 1 1 1 1 1 1 1 2 1 2 2 2 3 3 3 3 3 3 3 3 3 3 4 6 6 6 5 5 5 5 5 4
Wind_Direction
162 158 150 144 131 122 115 112 106 103 105 108 105 100 99 94 92 91 87 82 81 82 80 77 75 75 74 72 71 70 66 63 64 64 66 69 72 74 70 64 60 68 66
154 156 145 140 130 119 113 113 111 106 104 106 107 103 99 98 95 92 88 84 81 81 81 79 77 75 74 73 72 70 66 62 61 61 66 77 72 72 70 64 57 64 65
147 146 144 119 121 117 111 109 109 107 107 104 102 102 98 98 96 93 90 87 85 84 83 82 79 75 73 74 74 72 69 65 59 54 62 80 80 73 69 66 67 65 66
141 144 138 109 113 111 105 104 108 105 104 104 102 100 94 93 95 94 90 89 87 84 84 82 80 77 74 73 74 74 70 66 57 40 67 69 74 72 68 65 65 66 67
135 137 117 103 107 109 103 98 102 103 97 96 97 100 97 89 84 86 86 88 84 84 84 82 80 77 76 75 73 74 69 62 49 47 66 64 66 69 68 66 62 65 67
136 133 119 103 104 104 103 99 98 98 95 91 91 93 91 83 73 70 71 76 79 80 83 81 77 75 75 76 76 79 73 60 41 62 61 60 66 69 68 69 65 65 65
138 133 127 105 101 100 100 99 96 93 91 89 85 85 82 76 71 64 62 63 65 73 78 80 79 78 75 71 72 76 71 43 39 58 54 59 65 68 71 71 65 66 66
133 129 125 105 96 96 95 94 92 90 87 83 82 81 79 74 67 62 61 55 53 56 67 78 82 80 74 71 71 73 64 15 57 55 52 57 58 63 73 78 77 65 66
120 118 121 123 114 97 88 84 79 77 75 75 78 74 72 70 66 58 56 57 53 48 53 66 74 78 78 75 75 71 56 8 13 51 41 51 50 54 62 64 73 70 64
111 117 119 125 124 126 118 85 69 66 66 69 71 69 69 75 71 60 55 53 51 48 51 66 72 70 71 70 66 65 45 285 17 44 21 45 33 37 44 48 56 52 62
104 111 121 115 114 119 121 99 93 78 71 79 88 79 75 93 93 83 55 42 38 33 39 66 73 73 69 72 60 48 299 293 348 2 15 23 7 19 30 33 36 35 40
151 128 128 134 128 124 107 111 110 104 106 100 103 106 96 79 67 60 67 54 47 38 39 56 75 85 52 69 84 248 275 311 302 353 29 13 352 357 12 17 24 20 24
173 144 142 143 146 137 124 122 103 93 92 99 76 64 83 98 89 70 82 83 72 50 44 59 69 44 18 359 323 310 325 292 300 339 29 18 354 351 0 353 356 9 9
183 176 152 162 163 152 144 144 130 126 108 87 67 51 46 55 50 36 10 3 8 20 23 12 12 10 353 334 313 311 309 295 294 311 24 15 350 338 334 335 337 343 340
199 191 175 177 174 170 161 153 146 154 146 129 87 89 18 1 354 349 356 344 341 352 346 349 347 316 304 320 303 297 297 306 296 276 343 26 352 334 317 311 309 305 299
208 202 180 183 177 169 169 167 157 171 169 174 142 72 73 326 307 300 314 328 346 353 342 310 299 290 287 290 285 288 284 280 287 285 280 299 346 336 325 310 302 306 299
210 206 196 194 178 173 176 178 162 174 175 189 178 163 98 316 253 266 261 268 336 345 327 312 316 298 303 279 273 272 268 275 281 282 286 289 281 314 325 318 311 306 306
209 207 202 189 185 182 181 184 182 182 186 196 153 119 20 359 304 253 265 288 329 317 300 310 307 284 287 289 280 278 264 260 268 282 286 282 283 287 311 337 328 321 309
204 203 199 191 190 191 188 186 186 180 179 187 138 78 355 345 339 310 282 292 270 271 271 284 280 284 282 303 298 288 275 265 258 254 254 264 269 276 281 324 328 324 318
189 193 197 195 192 184 174 170 176 171 181 190 130 33 24 354 330 290 308 313 281 257 272 285 284 296 294 304 305 294 281 265 253 246 246 248 254 262 270 285 286 293 308
172 181 191 197 191 176 172 184 193 201 208 216 45 344 294 310 271 251 319 299 300 275 270 267 278 278 305 307 285 293 271 252 248 247 251 252 256 260 260 268 276 285 284
191 195 196 201 194 192 195 199 213 207 210 229 239 256 282 301 288 259 259 257 262 271 264 261 269 274 282 291 278 277 268 244 222 252 254 256 258 258 258 262 266 273 278
203 210 210 208 201 197 194 174 150 149 158 187 284 293 289 283 280 267 256 258 253 241 247 252 250 264 270 270 289 271 263 263 292 236 244 253 261 265 264 266 266 267 271
213 212 210 199 180 180 183 186 181 191 211 241 272 271 286 283 277 277 263 250 249 250 255 264 265 265 258 255 265 273 286 294 275 270 249 258 272 272 273 270 267 263 265
192 181 175 159 150 157 185 192 199 212 234 242 255 267 281 281 282 307 293 269 260 260 262 264 267 265 256 253 254 262 263 271 270 269 274 272 268 266 272 274 269 263 262
168 144 132 147 132 114 166 190 198 207 217 231 249 258 266 281 286 303 303 296 285 276 267 261 260 261 262 257 254 250 251 251 251 258 268 280 278 275 274 268 263 264 266